Other Public Products
Issued by NWS Grand Forks, ND

Home | Current Version | Previous Version | Graphics & Text | Print | Product List | Glossary On
Versions: 1 2 3 4 5 6 7 8 9 10 11 12 13 14 15 16 17 18 19 20 21 22 23 24 25 26 27 28 29 30 31 32 33 34 35 36 37 38 39 40 41 42 43 44 45 46 47 48 49 50
000
FPUS83 KFGF 221531
OPUFGF
PRAIRIE TO PINES WEATHER ROUNDUP
NATIONAL WEATHER SERVICE EASTERN NORTH DAKOTA/GRAND FORKS ND
1000 AM CDT SAT JUL 22 2017

 **SATELLITE DATA USED TO AUGMENT SKY COVER AT AUTOMATED STATIONS**
 *****  WEATHER ACROSS EASTERN NORTH DAKOTA  *****

CITY           SKY/WX    TMP DP  RH WIND       PRES   REMARKS
GRAND FORKS    FAIR      78  66  66 W15       29.81R
GRAND FORKS AF FAIR      76  63  64 NW15      29.83R
GRAND CITY NWS NOT AVBL
BUXTON           N/A     77  71  82 W12         N/A
DEVILS LAKE    FAIR      69  58  67 W17G25    29.89S
FARGO          FAIR      76  66  71 W14       29.85S
WAHPETON ARPT  FAIR      73  64  73 W9        29.87S
$$

 *****  WEATHER ACROSS CENTRAL AND WESTERN NORTH DAKOTA  *****

CITY           SKY/WX    TMP DP  RH WIND       PRES   REMARKS
JAMESTOWN      FAIR      77  63  61 NW9       29.90S
BISMARCK       FAIR      74  60  61 W5        29.97S
MINOT          FAIR      77  50  38 W17       29.93S
MINOT AFB      FAIR      72  55  54 NW15      29.92R
GARRISON         N/A     74  55  51 W9        29.96R
WILLISTON      FAIR      71  50  47 NW21G28   30.00R
DICKINSON      FAIR      74  48  39 W12       30.02S
HETTINGER      FAIR      74  49  41 W7        30.06S
$$

 *****  OTHER OBSERVATIONS NORTHEAST NORTH DAKOTA  *****

CITY           SKY/WX    TMP DP  RH WIND       PRES   REMARKS
WALHALLA       NOT AVBL
LANGDON        FAIR      68  64  88 NW14G22   29.87R
CAVALIER       FAIR      72  61  68 NW20      29.80R
GRAFTON        FAIR      75  61  60 W17       29.83S
CANDO          NOT AVBL
FORT TOTTEN      N/A     72  58  61 NW8       29.95
ROLLA            N/A     68  55  64 NW13G21   29.91R
RUGBY          NOT AVBL
 ***** THE ABOVE OBSERVATIONS ARE NON NWS ARE NOT QUALITY
        CONTROLLED AND MAY MIS-REPORT RAIN FOR SNOW...
$$

 *****  OTHER OBSERVATIONS SOUTHEAST NORTH DAKOTA *****

CITY           SKY/WX    TMP DP  RH WIND       PRES   REMARKS
COOPERSTOWN    FAIR      73  63  68 NW14G23   29.90R
VALLEY CITY    FAIR      75  66  73 W12       29.91S
OAKES          NOT AVBL
GWINNER        SUNNY     75  68  78 SW9       29.90S
SHEYENNE NWR     N/A     75  68  79 W7        29.95S
BUFFALO          N/A     74  65  72 E9          N/A
WYNDMERE       NOT AVBL
 ***** THE ABOVE OBSERVATIONS ARE NON NWS ARE NOT QUALITY
       CONTROLLED AND MAY MIS-REPORT RAIN FOR SNOW...
$$

  *****  WEATHER ACROSS NORTHERN MINNESOTA  *****

CITY           SKY/WX    TMP DP  RH WIND       PRES   REMARKS
FLAG ISLAND    CLOUDY    66  64  94 S7        29.76S FOG
WARROAD        FAIR      72  66  83 SW8       29.77F
ROSEAU         FAIR      73  66  78 SW12      29.78S
HALLOCK        FAIR      73  63  68 W14       29.79F
THF RVR FALLS  FAIR      73  65  75 W14G20    29.83R
HALSTAD          N/A     75  68  79 W14         N/A
FOSSTON        FAIR      73  66  78 W12       29.83F
BAUDETTE       CLOUDY    67  65  93 S6        29.79S
WASKISH        NOT AVBL
CROOKSTON      FAIR      73  66  78 W8G16     29.83S
$$
  *****  WEATHER ACROSS CENTRAL AND WEST MINNESOTA  *****

CITY           SKY/WX    TMP DP  RH WIND       PRES   REMARKS
BEMIDJI        FAIR      74  64  69 W9        29.83R
PARK RAPIDS    FAIR      77  66  68 W12       29.83S
WADENA         FAIR      75  66  73 W7        29.84R
DETROIT LAKES  FAIR      75  64  69 W10       29.87S
MOORHEAD       FAIR      73  66  78 SW9       29.87R
FERGUS FALLS   FAIR      73  70  88 W9        29.86S
ELBOW LAKE     FAIR      74  69  83 SW10      29.87S
MORRIS MN      FAIR      79  66  65 SW7       29.86S
STAPLES        FAIR      77  66  69 W8        29.82S
WHEATON        FAIR      75  66  73 SW9       29.89S
$$
  *****  WEATHER ELSEWHERE ACROSS MINNESOTA  *****

CITY           SKY/WX    TMP DP  RH WIND       PRES   REMARKS
DULUTH         CLOUDY    65  63  93 SW9       29.84R
INTRNTL FALLS  PTSUNNY   68  62  81 VRB5      29.80F
ELY            FAIR      64  55  72 CALM      29.83F
CLOQUET        CLOUDY    66  63  88 W5        29.82S
BRAINERD       FAIR      75  67  76 N3        29.81R
HIBBING        CLOUDY    63  63 100 VRB3      29.83F
ALEXANDRIA     FAIR      74  68  81 SW10      29.87F
SAINT CLOUD    FAIR      74  68  81 S6        29.82F
MINNEAPOLIS    FAIR      79  66  64 CALM      29.85F
$$

  *****  WEATHER ACROSS SOUTH DAKOTA  *****

CITY           SKY/WX    TMP DP  RH WIND       PRES   REMARKS
SIOUX FALLS    CLOUDY    77  71  82 N8        29.92R
BROOKINGS      FAIR      74  67  78 NW5       29.92F
WATERTOWN      FAIR      74  68  81 VRB3      29.91S
HURON          FAIR      76  70  82 N8        29.91R
SISSETON         N/A     74  70  87 S8        29.88S
ABERDEEN       FAIR      77  67  71 NW6       29.91S
MITCHELL       FAIR      77  72  84 NW5       29.92R
PIERRE         FAIR      78  61  55 W6        29.95R
MOBRIDGE       FAIR      76  66  71 N12       29.95R
RAPID CITY     FAIR      77  42  28 N12       30.06R
$$

  *****  SOME WEATHER IN NEARBY STATES *****

CITY           SKY/WX    TMP DP  RH WIND       PRES   REMARKS
GLASGOW MT     FAIR      68  49  50 NW17      30.08S
GREAT FALLS MT FAIR      64  34  32 SW6       30.18R
CHEYENNE WY    FAIR      76  48  37 NW17G24   30.23R
SCOTTSBLUFF NE FAIR      76  55  48 NW5       30.11R
OMAHA NE       CLOUDY    81  75  82 NW12      29.84R
DES MOINES IA  FAIR      86  76  71 SW5       29.77S HX  96
DAVENPORT IA   FAIR      77  69  76 S5        29.84R
CHICAGO IL     PTSUNNY   75  68  78 W12       29.84R
EAU CLAIRE WI  FAIR      76  67  73 N7        29.85R
LA CROSSE WI   CLOUDY    75  70  84 CALM      29.84R
$$

  *****  SOME NATIONAL WEATHER *****

CITY           SKY/WX    TMP DP  RH WIND       PRES   REMARKS
LA GUARDIA NY  FAIR      84  64  50 NE9       29.88R
RALEIGH NC     FAIR      91  76  61 SW9       29.99F HX 103
ATLANTA GA     FAIR      83  74  74 SW5       30.06F
NEW ORLEANS LA PTSUNNY   85  75  72 SE5       30.03F HX  93
OKLAHOMA CITY  FAIR      88  67  49 S14       29.93F HX  91
ALBUQUERQUE NM FAIR      72  59  63 S6        30.21R
SALT LAKE CITY FAIR      82  54  37 SE7       30.12R
LOS ANGELES CA FAIR      70  64  81 E3        29.92R
BOISE ID       FAIR      67  43  41 CALM      30.15R
SEATTLE WA     CLOUDY    66  53  63 S3        30.20R
$$

*** WEATHER ACROSS MANITOBA...SASKATCHEWAN AND ONTARIO ***
                ***ONTARIO***

CITY           SKY/WX    TMP DP  RH WIND       PRES   REMARKS
GERALDTON      CLOUDY    64  45  48 E8        29.95S
THUNDER BAY    CLOUDY    63  54  72 NE10G20   29.87S
SIOUX LOOKOUT  PTSUNNY   70  55  60 SE9       29.84F
TORONTO        LGT RAIN  73  63  68 SE3       29.88F
BIG TROUT LK   SUNNY     66  45  45 E6        29.97S
PICKLE LAKE    PTSUNNY   66  43  42 E12       29.94F
DRYDEN         CLOUDY    68  59  73 E6        29.82F
KENORA         TSTM      63  61  94 E9        29.76F
$$
                *** MANITOBA***

CITY           SKY/WX    TMP DP  RH WIND       PRES   REMARKS
BRANDON        PTSUNNY   64  57  77 NW17G24   29.87R
DAUPHIN        CLOUDY    61  59  94 NW12      29.86R
ISLAND LAKE    MOSUNNY   70  48  46 E6        29.94S
PILOT MOUND      N/A     64  57  77 W14G21      N/A
THE PAS        MOSUNNY   68  54  60 N6        29.92R
THOMPSON       MOSUNNY   70  45  40 CALM      29.96S
WINNIPEG       PTSUNNY   66  63  88 W10G18    29.76R
LYNN LAKE      MOSUNNY   70  46  43 VRB2      29.96S
CHURCHILL      MOSUNNY   66  46  48 W7        29.94S
GILLAM         MOSUNNY   68  48  49 CALM      29.97F
$$
                ***SASKATCHEWAN***

CITY           SKY/WX    TMP DP  RH WIND       PRES   REMARKS
ESTEVAN        PTSUNNY   63  57  82 NW7       29.98S
KINDERSLEY     MOSUNNY   63  55  77 W5        30.06R
LLOYDMINSTER   MOSUNNY   64  63  94 W6        30.02R SMOKE
PRINCE ALBERT  MOSUNNY   63  55  77 VRB2      30.01R
REGINA         MOSUNNY   63  54  72 NW15      30.00R
YORKTON        CLOUDY    59  57  94 NW8       29.92R



USA.gov is the U.S. government's official web portal to all federal, state and local government web resources and services.